Change the Weather History Date:

Thursday, February 9, 2012

  Actual Average Record
Temperature  
Mean Temperature 27 °F 33 °F  
Max Temperature 32 °F 42 °F 74 °F (1918)
Min Temperature 22 °F 25 °F -9 °F (1933)
Degree Days  
Heating Degree Days 38 32  
Month to date heating degree days 239 292  
Since 1 July heating degree days 2857 3436  
Cooling Degree Days 0 0  
Month to date cooling degree days 0 0  
Year to date cooling degree days 0 0  
Moisture  
Dew Point 20 °F    
Average Humidity 76    
Maximum Humidity 88    
Minimum Humidity 63    
Precipitation  
Precipitation 0.00 in 0.10 in 2.11 in (1994)
Month to date precipitation 0.87 0.86  
Year to date precipitation 4.22 3.67  
Snow  
Snow 0.00 in - - ()
Month to date snowfall 0.8  
Since 1 September snowfall 19.6  
Snow Depth 0.00 in    
Sea Level Pressure  
Sea Level Pressure 30.27 in    
Wind  
Wind Speed 5 mph (WNW)    
Max Wind Speed 17 mph    
Max Gust Speed 22 mph    
Visibility 10 miles    
Events      
T = Trace of Precipitation, MM = Missing Value Source: NWS Daily Summary

Daily Weather History Graph

Daily Weather History Graph

Search for Another Location

Airport or City:

Trip Planner

Search our weather history database for the weather conditions in past years. The results will help you decide how hot, cold, wet, or windy it might be!

Date:

Astronomy

Feb. 09, 2012 Rise Set
Actual Time 7:21 AM EST 5:56 PM EST
Civil Twilight 6:54 AM EST 6:23 PM EST
Nautical Twilight 6:23 AM EST 6:54 PM EST
Astronomical Twilight 5:52 AM EST 7:25 PM EST
Moon 8:19 PM EST (2/9) 8:00 AM EST (2/9)
Length of Visible Light 11h 29m
Length of Day
10h 35m
Waning Gibbous, 96% of the Moon is Illuminated
Feb 9
Waning Gibbous
Feb 14
Last Quarter
Feb 21
New
Feb 29
First Quarter
Mar 8
Full

Hourly Weather History & Observations

Time (EST) Temp. Windchill Dew Point Humidity Pressure Visibility Wind Dir Wind Speed Gust Speed Precip Events Conditions
12:51 AM 27.0 °F 15.2 °F 23.0 °F 85% 30.28 in 10.0 mi NW 15.0 mph - N/A   Overcast
1:27 AM 26.6 °F 18.2 °F 24.8 °F 93% 30.19 in 9.0 mi NW 8.1 mph - N/A   Overcast
1:51 AM 27.0 °F 19.5 °F 23.0 °F 85% 30.28 in 10.0 mi NW 6.9 mph - N/A   Overcast
2:16 AM 26.6 °F 13.8 °F 21.2 °F 80% 30.19 in 10.0 mi NNW 17.3 mph 21.9 mph N/A   Overcast
2:51 AM 26.1 °F 16.2 °F 21.0 °F 81% 30.27 in 10.0 mi NW 10.4 mph - N/A   Overcast
3:51 AM 26.1 °F 16.8 °F 19.9 °F 78% 30.30 in 10.0 mi NNW 9.2 mph - N/A   Overcast
4:51 AM 26.1 °F 16.8 °F 19.0 °F 75% 30.30 in 10.0 mi NW 9.2 mph - N/A   Overcast
5:51 AM 25.0 °F 15.5 °F 19.0 °F 78% 30.31 in 10.0 mi NNW 9.2 mph - N/A   Overcast
6:51 AM 25.0 °F 16.3 °F 17.1 °F 72% 30.32 in 10.0 mi North 8.1 mph - N/A   Overcast
7:51 AM 25.0 °F 18.1 °F 17.1 °F 72% 30.34 in 10.0 mi NW 5.8 mph - N/A   Overcast
8:51 AM 25.0 °F 17.1 °F 17.1 °F 72% 30.36 in 10.0 mi West 6.9 mph - N/A   Overcast
9:51 AM 26.1 °F 18.4 °F 17.1 °F 69% 30.35 in 10.0 mi West 6.9 mph - N/A   Overcast
10:51 AM 27.0 °F 21.6 °F 17.1 °F 66% 30.36 in 10.0 mi NNW 4.6 mph - N/A   Overcast
11:43 AM 28.4 °F 22.2 °F 17.6 °F 64% 30.24 in 10.0 mi WNW 5.8 mph - N/A   Scattered Clouds
11:51 AM 28.0 °F - 18.0 °F 66% 30.34 in 10.0 mi Calm Calm - N/A   Partly Cloudy
12:10 PM 28.4 °F 21.2 °F 19.4 °F 69% 30.23 in 10.0 mi NW 6.9 mph - N/A   Mostly Cloudy
12:51 PM 28.9 °F 25.2 °F 18.0 °F 64% 30.32 in 10.0 mi West 3.5 mph - N/A   Overcast
1:51 PM 30.0 °F 23.2 °F 19.0 °F 64% 30.30 in 10.0 mi WSW 6.9 mph - N/A   Overcast
2:51 PM 30.0 °F 23.2 °F 19.9 °F 66% 30.28 in 10.0 mi West 6.9 mph - N/A   Overcast
3:43 PM 32.0 °F - 21.2 °F 64% 30.15 in 10.0 mi Calm Calm - N/A   Scattered Clouds
3:51 PM 30.2 °F - 21.2 °F 69% 30.15 in 10.0 mi Calm Calm - N/A   Partly Cloudy
4:51 PM 30.0 °F 25.2 °F 19.9 °F 66% 30.26 in 10.0 mi WSW 4.6 mph - N/A   Clear
5:51 PM 28.9 °F 23.9 °F 19.9 °F 69% 30.25 in 10.0 mi SSW 4.6 mph - N/A   Partly Cloudy
6:51 PM 28.9 °F - 19.9 °F 69% 30.25 in 10.0 mi Calm Calm - N/A   Clear
7:51 PM 28.9 °F 22.8 °F 21.0 °F 72% 30.26 in 10.0 mi West 5.8 mph - N/A   Clear
8:51 PM 27.0 °F - 19.9 °F 75% 30.26 in 10.0 mi Calm Calm - N/A   Clear
9:51 PM 26.1 °F - 19.9 °F 78% 30.27 in 10.0 mi Calm Calm - N/A   Partly Cloudy
10:51 PM 23.0 °F - 19.0 °F 85% 30.27 in 10.0 mi Calm Calm - N/A   Partly Cloudy
11:51 PM 24.1 °F - 19.0 °F 81% 30.27 in 9.0 mi Calm Calm - N/A   Mostly Cloudy